Location: Bratislava
(48.1500°N, 17.1170°E)
Time: 11:55:40
(UTC+01:00)

OTV 5 (USA 277) - Visible Passes

Search period start: 18 February 2018 00:00
Search period end: 28 February 2018 00:00
Orbit: 404 x 417 km, 43.0° (Epoch: 07 September)

Date Brightness Start Highest point End Pass type
(mag) Time Alt. Az. Time Alt. Az. Time Alt. Az.
21 Feb ? 05:58:44 10° SSW 06:00:59 17° SSE 06:03:13 10° ESE visible
22 Feb ? 05:08:27 10° S 05:10:06 13° SSE 05:11:45 10° ESE visible
23 Feb ? 05:53:04 10° SW 05:55:51 25° SSE 05:58:39 10° ESE visible
24 Feb ? 05:03:42 17° SSW 05:04:56 21° SSE 05:07:30 10° ESE visible
25 Feb ? 04:15:03 15° SE 04:15:03 15° SE 04:16:16 10° ESE visible
25 Feb ? 05:47:49 10° WSW 05:50:48 32° S 05:53:47 10° ESE visible
26 Feb ? 04:59:06 26° SSW 04:59:50 29° S 05:02:45 10° ESE visible
27 Feb ? 04:10:22 18° SE 04:10:22 18° SE 04:11:41 10° ESE visible
27 Feb ? 05:43:07 12° WSW 05:45:46 32° S 05:48:46 10° ESE visible
